Meteo Giornale » Osservazioni meteo Emirati Arabi Uniti » Fujairah
ore: 21:00 - Osservazioni Meteo Fujairah
Lat. 25° 6' N Lon. 56° 20' E Alt. 28 metri s.l.m.
32 °C
Poco Nuvoloso
Temp. 24 Ore
32 °C
36 °C
Sud-Est
11.1 Km/h
Dew point 29 °C
Umidità 84 %
Visibilità 6 Km
Il sole sorge alle ore 05:55
Il sole tramonta alle ore 18:34
| Data e Ora | Cielo e Fenomeni | T °C | DP °C | Um. % | Pres. hPa | Vis. km | Vento km/h | |
|---|---|---|---|---|---|---|---|---|
| Oggi h: 21:00 | Poco Nuvoloso | 32 | 29 | 84 | 1001 | 6 | SE 11.1 | |
| Oggi h: 20:50 | Poco Nuvoloso | 32 | 29 | 84 | 1001 | 6 | SE 11.1 | |
| Oggi h: 20:00 | Poco Nuvoloso | 32 | 29 | 84 | 1001 | 6 | SE 14.8 | |
| Oggi h: 19:50 | Poco Nuvoloso | 32 | 29 | 84 | 1001 | 6 | SE 14.8 | |
| Oggi h: 19:00 | Sereno | 33 | 29 | 79 | 1000 | 7 | SE 11.1 | |
| Oggi h: 18:50 | Sereno | 33 | 29 | 79 | 1000 | 7 | SE 11.1 | |
| Oggi h: 18:00 | Sereno | 33 | 29 | 79 | 1000 | 7 | E 14.8 | |
| Oggi h: 17:50 | Sereno | 33 | 29 | 79 | 1000 | 7 | E 14.8 | |
| Oggi h: 17:00 | Sereno | 34 | 29 | 75 | 1000 | 7 | E 16.7 | |
| Oggi h: 16:50 | Sereno | 34 | 29 | 75 | 1000 | 7 | E 16.7 | |
| Oggi h: 16:00 | Sereno | 34 | 29 | 75 | 999 | 7 | E 13 | |
| Oggi h: 15:50 | Sereno | 34 | 29 | 75 | 999 | 7 | E 13 | |
| Oggi h: 15:00 | Sereno | 35 | 29 | 71 | 1000 | 7 | E 14.8 | |
| Oggi h: 14:50 | Sereno | 35 | 29 | 71 | 1000 | 7 | E 14.8 | |
| Oggi h: 14:00 | Sereno | 36 | 28 | 63 | 1000 | 7 | E 16.7 | |
| Oggi h: 13:50 | Sereno | 36 | 28 | 63 | 1000 | 7 | E 16.7 | |
| Oggi h: 13:00 | Sereno | 35 | 28 | 67 | 1001 | 6 | E 16.7 | |
| Oggi h: 12:50 | Sereno | 35 | 28 | 67 | 1001 | 6 | E 16.7 | |
| Oggi h: 12:00 | Sereno | 35 | 27 | 63 | 1001 | 6 | E 16.7 | |
| Oggi h: 11:50 | Sereno | 35 | 27 | 63 | 1001 | 6 | E 16.7 | |
| Oggi h: 11:00 | Sereno | 34 | 28 | 71 | 1002 | 6 | E 16.7 | |
| Oggi h: 10:50 | Sereno | 34 | 28 | 71 | 1002 | 6 | E 16.7 | |
| Oggi h: 10:00 | Poco Nuvoloso | 34 | 29 | 75 | 1002 | 6 | E 14.8 | |
| Oggi h: 09:50 | Poco Nuvoloso | 34 | 29 | 75 | 1002 | 6 | E 14.8 | |
| Oggi h: 09:00 | Foschia | 34 | 29 | 75 | 1002 | 5 | E 9.3 | |
| Oggi h: 08:50 | Foschia | 34 | 29 | 75 | 1002 | 5 | E 9.3 | |
| Oggi h: 08:00 | Foschia | 33 | 29 | 79 | 1002 | 5 | E 7.4 | |
| Oggi h: 07:50 | Foschia | 33 | 29 | 79 | 1002 | 5 | E 7.4 | |
| Oggi h: 07:00 | Foschia | 32 | 29 | 84 | 1001 | 4 | N 5.5 | |
| Oggi h: 06:50 | Foschia | 32 | 29 | 84 | 1001 | 4 | N 5.5 | |
| Oggi h: 06:00 | Foschia | 32 | 29 | 84 | 1001 | 4 | E 7.4 | |
| Oggi h: 05:50 | Foschia | 32 | 29 | 84 | 1001 | 4 | E 7.4 | |
| Oggi h: 05:30 | Foschia | 32 | 30 | 89 | 1000 | 5 | N 3.7 | |
| Oggi h: 05:00 | Poco Nuvoloso | 32 | 29 | 84 | 1000 | 6 | N 3.7 | |
| Oggi h: 04:50 | Poco Nuvoloso | 32 | 29 | 84 | 1000 | 6 | N 3.7 | |
| Oggi h: 04:30 | Poco Nuvoloso | 32 | 29 | 84 | 1000 | 6 | N 5.5 | |
| Oggi h: 03:50 | Poco Nuvoloso | 32 | 29 | 84 | 1000 | 6 | N 5.5 | |
| Oggi h: 03:00 | Sereno | 32 | 29 | 84 | 1000 | 6 | E/NE 7.4 | |
| Oggi h: 02:50 | Sereno | 32 | 29 | 84 | 1000 | 6 | E/NE 7.4 | |
| Oggi h: 02:30 | Sereno | 33 | 29 | 79 | 1000 | 6 | N 3.7 | |
| Oggi h: 02:00 | Sereno | 32 | 29 | 84 | 1000 | 6 | N 1.8 | |
| Oggi h: 01:50 | Sereno | 32 | 29 | 84 | 1000 | 6 | N 1.8 | |
| Oggi h: 01:30 | Sereno | 32 | 28 | 79 | 1000 | 6 | N 1.8 | |
| Oggi h: 01:00 | Sereno | 32 | 29 | 84 | 1000 | 6 | N 1.8 | |
| Oggi h: 00:50 | Sereno | 32 | 29 | 84 | 1000 | 6 | N 1.8 | |
| Oggi h: 00:30 | Sereno | 32 | 29 | 84 | 1000 | 6 | N 5.5 | |
| Oggi h: 00:00 | Sereno | 32 | 29 | 84 | 1000 | 6 | N 3.7 | |
| Ieri h: 23:50 | Sereno | 32 | 29 | 84 | 1000 | 6 | N 3.7 | |
| Ieri h: 23:30 | Sereno | 32 | 29 | 84 | 1000 | 6 | E/SE 7.4 | |
| Ieri h: 23:00 | Sereno | 32 | 29 | 84 | 1000 | 6 | E/SE 9.3 | |
| Ieri h: 22:50 | Sereno | 32 | 29 | 84 | 1000 | 6 | E/SE 9.3 | |
| Ieri h: 22:30 | Sereno | 33 | 29 | 79 | 1000 | 6 | E 7.4 | |
| Ieri h: 22:00 | Poco Nuvoloso | 33 | 29 | 79 | 1000 | 6 | S/SE 7.4 | |
| Ieri h: 21:50 | Poco Nuvoloso | 33 | 29 | 79 | 1000 | 6 | S/SE 7.4 | |



